{"data":{"norad_id":48982,"intl_designator":"2021-060R","name":"ONEWEB-0264","alt_names":[],"object_type":"PAYLOAD","status":"ACTIVE","operator":null,"country":"UK","launch_date":"2021-07-01","launch_site_code":"VOSTO","launch_vehicle":null,"mission":null,"orbit_class":"UNKNOWN","rcs_meters":null,"size_class":null,"mass_kg":null,"dimensions":null,"purposes":["comms"],"wikipedia_slug":null,"has_3d_model":false,"image_url":null,"decayed_at":null,"tle_current":{"epoch":"2026-05-25T03:46:24.424896Z","epoch_age_seconds":64623,"freshness":"FRESH","line1":"1 48982U 21060R   26145.15722714  .00000118  00000+0  27625-3 0  9991","line2":"2 48982  87.9105 233.3571 0001992  93.2652 266.8707 13.16593121236565","mean_motion":13.16593121,"eccentricity":0.0001992,"inclination_deg":87.9105,"raan_deg":233.3571,"arg_perigee_deg":93.2652,"mean_anomaly_deg":266.8707,"bstar":0.00027625,"rev_number":23656,"period_min":109.37319791754,"perigee_km":1196.2519060274,"apogee_km":1199.2701438005,"semimajor_km":7575.898024914,"source":"CELESTRAK","updated_at":"2026-05-25T13:38:22.473794Z"}}}